Location: Newark
(45.8378°N, 5.5389°E)
Time: 03:02:21
(UTC+00:00)

YUBILEINY - Pass Details

Date: 22 December 2019
Orbit: 1478 x 1509 km, 82.5° (Epoch: 23 January)

Event Time Altitude Azimuth Distance (km) Brightness Sun altitude
Rises 05:27:28 0° 354° (N) 4,611 ? -18.0°
Reaches altitude 10° 05:30:45 10° 3° (N) 3,629 ? -17.5°
Maximum altitude 05:38:33 35° 67° (ENE) 2,229 ? -16.2°
Drops below altitude 10° 05:46:18 10° 130° (SE) 3,627 ? -14.9°
Sets 05:49:33 0° 140° (SE) 4,607 ? -14.4°
